Find Starlink 4331

NORAD ID: 53046 Int'l Des: 2022-077 Owner: SPXS Country: US Constellation: starlink operational
LEOCIRCULARRETROGRADESSO

リアルタイム位置

3D地球を読み込み中...

Starlink 4331について

説明を読み込み中...

次回通過

Passes for default location (London). Set your location on the main map for personalized predictions.

高度履歴

Loading altitude history...

軌道要素

1 53046U 22077D 26124.78107088 -.00004172 00000-0 -28499-3 0 9991
2 53046 97.5325 306.5202 0002288 80.5323 279.6162 15.05668881209439
Epoch: May 4, 2026 • Age: 8 hours

現在のステータス

高度 561.5 km
速度 7.59 km/s
衛星直下点 82.41°N, 62.1°W
打ち上げ日 Jul 11, 2022
運用期間 3.8 years
タイプ internet

技術仕様

分類 Payload
質量 297.00 kg
乾燥質量 275.00 kg
総質量 297.00 kg
長さ 0.20 m
直径 2.80 m
スパン 9.00 m
形状 Box + pan
製造者 SPXS
バスタイプ Starlink
フェーズステータス In Orbit
所有者/国 SPXS/US

Most Searched